Red Oak, IA

10:36 PM CST on January 17, 2018 (GMT -0600)
Red Oak Municipal

Weather History for KRDK - April, 2014

Change the Weather History Date:

Sunday, April 6, 2014

  Actual Average Record
Temperature  
Mean Temperature 52 °F -  
Max Temperature 60 °F 64 °F 91 °F (1972)
Min Temperature 44 °F 34 °F 8 °F (1982)
Degree Days  
Heating Degree Days 13    
Growing Degree Days 2 (Base 50)    
Moisture  
Dew Point 34 °F    
Average Humidity 51    
Maximum Humidity 76    
Minimum Humidity 38    
Precipitation  
Precipitation 0.00 in - - ()
Sea Level Pressure  
Sea Level Pressure 29.93 in    
Wind  
Wind Speed 10 mph (South)    
Max Wind Speed 21 mph    
Max Gust Speed 25 mph    
Visibility 10 miles    
Events      
Averages and records for this station are not official NWS values.
T = Trace of Precipitation, MM = Missing Value Source: NWS Daily Summary

Daily Weather History Graph

Daily Weather History Graph

Search for Another Location

Airport or City:

Trip Planner

Search our weather history database for the weather conditions in past years. The results will help you decide how hot, cold, wet, or windy it might be!

Date:

Astronomy

Apr. 06, 2014 Rise Set
Actual Time 6:56 AM CDT 7:51 PM CDT
Civil Twilight 6:28 AM CDT 8:19 PM CDT
Nautical Twilight 5:54 AM CDT 8:52 PM CDT
Astronomical Twilight 5:20 AM CDT 9:27 PM CDT
Moon 11:56 AM CDT (4/6) 1:49 AM CDT (4/6)
Length of Visible Light 13h 51m
Length of Day
12h 55m
Waxing Crescent, 44% of the Moon is Illuminated
Apr 6
Waxing Crescent
Apr 7
First Quarter
Apr 15
Full
Apr 22
Last Quarter
Apr 29
New

Hourly Weather History & Observations

Time (CDT) Temp. Windchill Dew Point Humidity Pressure Visibility Wind Dir Wind Speed Gust Speed Precip Events Conditions
12:15 AM 48.2 °F - 30.2 °F 50% 30.01 in 10.0 mi South 11.5 mph - N/A   Overcast
12:35 AM 48.2 °F - 30.2 °F 50% 30.00 in 10.0 mi SSE 10.4 mph - N/A   Overcast
12:55 AM 48.2 °F - 32.0 °F 54% 30.00 in 10.0 mi SSE 10.4 mph - N/A   Overcast
1:15 AM 48.2 °F - 32.0 °F 54% 29.99 in 10.0 mi South 13.8 mph - N/A   Overcast
1:35 AM 50.0 °F - 32.0 °F 50% 29.99 in 10.0 mi South 13.8 mph 20.7 mph N/A   Overcast
1:55 AM 50.0 °F - 32.0 °F 50% 29.99 in 10.0 mi South 16.1 mph 23.0 mph N/A   Overcast
2:15 AM 50.0 °F - 32.0 °F 50% 29.99 in 10.0 mi South 16.1 mph - N/A   Overcast
2:35 AM 50.0 °F - 30.2 °F 47% 29.99 in 10.0 mi South 17.3 mph - N/A   Overcast
2:55 AM 50.0 °F - 30.2 °F 47% 29.98 in 10.0 mi South 18.4 mph 25.3 mph N/A   Overcast
3:15 AM 50.0 °F - 30.2 °F 47% 29.98 in 10.0 mi South 20.7 mph - N/A   Overcast
3:35 AM 48.2 °F - 30.2 °F 50% 29.98 in 10.0 mi South 17.3 mph - N/A   Mostly Cloudy
3:55 AM 48.2 °F - 30.2 °F 50% 29.99 in 10.0 mi South 15.0 mph 20.7 mph N/A   Mostly Cloudy
4:15 AM 48.2 °F - 30.2 °F 50% 29.99 in 10.0 mi South 16.1 mph - N/A   Overcast
4:35 AM 48.2 °F - 32.0 °F 54% 30.00 in 10.0 mi SSW 8.1 mph - N/A   Overcast
4:55 AM 48.2 °F - 30.2 °F 50% 29.98 in 10.0 mi South 11.5 mph - N/A   Overcast
5:15 AM 46.4 °F 41.9 °F 32.0 °F 57% 29.99 in 10.0 mi South 9.2 mph - N/A   Overcast
5:35 AM 46.4 °F 42.9 °F 32.0 °F 57% 29.99 in 10.0 mi South 6.9 mph - N/A   Overcast
5:55 AM 46.4 °F 42.4 °F 32.0 °F 57% 29.99 in 10.0 mi South 8.1 mph - N/A   Overcast
6:15 AM 46.4 °F 42.4 °F 32.0 °F 57% 29.99 in 10.0 mi South 8.1 mph - N/A   Overcast
6:35 AM 46.4 °F - 32.0 °F 57% 29.99 in 10.0 mi Calm Calm - N/A   Overcast
6:55 AM 44.6 °F 42.2 °F 32.0 °F 61% 29.99 in 10.0 mi SSE 4.6 mph - N/A   Overcast
7:15 AM 46.4 °F 45.2 °F 32.0 °F 57% 29.99 in 10.0 mi SSE 3.5 mph - N/A   Overcast
7:35 AM 46.4 °F 44.3 °F 32.0 °F 57% 29.99 in 10.0 mi SSE 4.6 mph - N/A   Mostly Cloudy
7:55 AM 46.4 °F 42.9 °F 32.0 °F 57% 29.99 in 10.0 mi South 6.9 mph - N/A   Mostly Cloudy
8:15 AM 46.4 °F 42.9 °F 32.0 °F 57% 30.00 in 10.0 mi South 6.9 mph - N/A   Partly Cloudy
8:35 AM 48.2 °F - 32.0 °F 54% 30.00 in 10.0 mi South 8.1 mph - N/A   Clear
8:55 AM 48.2 °F - 33.8 °F 58% 29.99 in 10.0 mi South 6.9 mph - N/A   Scattered Clouds
9:15 AM 48.2 °F - 33.8 °F 58% 29.99 in 10.0 mi South 6.9 mph - N/A   Partly Cloudy
9:35 AM 50.0 °F - 33.8 °F 54% 29.98 in 10.0 mi South 9.2 mph - N/A   Clear
9:55 AM 51.8 °F - 32.0 °F 47% 29.98 in 10.0 mi South 9.2 mph - N/A   Partly Cloudy
10:15 AM 51.8 °F - 33.8 °F 50% 29.97 in 10.0 mi South 10.4 mph - N/A   Partly Cloudy
10:35 AM 55.4 °F - 33.8 °F 44% 29.97 in 10.0 mi SSW 9.2 mph - N/A   Clear
10:55 AM 57.2 °F - 32.0 °F 38% 29.97 in 10.0 mi SSW 12.7 mph - N/A   Partly Cloudy
11:15 AM 57.2 °F - 32.0 °F 38% 29.96 in 10.0 mi SSW 11.5 mph - N/A   Clear
11:35 AM 57.2 °F - 32.0 °F 38% 29.96 in 10.0 mi SSW 9.2 mph - N/A   Mostly Cloudy
11:55 AM 57.2 °F - 32.0 °F 38% 29.95 in 9.0 mi SSW 6.9 mph - N/A   Mostly Cloudy
12:15 PM 59.0 °F - 33.8 °F 39% 29.94 in 9.0 mi SW 8.1 mph - N/A   Mostly Cloudy
12:35 PM 59.0 °F - 35.6 °F 42% 29.93 in 10.0 mi WSW 6.9 mph - N/A   Mostly Cloudy
12:55 PM 59.0 °F - 35.6 °F 42% 29.93 in 10.0 mi SW 10.4 mph - N/A   Mostly Cloudy
1:15 PM 59.0 °F - 35.6 °F 42% 29.92 in 10.0 mi SSW 10.4 mph - N/A   Overcast
1:35 PM 59.0 °F - 35.6 °F 42% 29.91 in 10.0 mi South 9.2 mph - N/A   Overcast
1:55 PM 59.0 °F - 35.6 °F 42% 29.91 in 10.0 mi SSW 8.1 mph - N/A   Overcast
2:15 PM 59.0 °F - 35.6 °F 42% 29.90 in 10.0 mi SSW 8.1 mph - N/A   Overcast
2:35 PM 60.8 °F - 35.6 °F 39% 29.89 in 10.0 mi SSW 6.9 mph - N/A   Overcast
2:55 PM 60.8 °F - 35.6 °F 39% 29.88 in 10.0 mi SW 12.7 mph - N/A   Overcast
3:15 PM 60.8 °F - 35.6 °F 39% 29.88 in 10.0 mi SSW 11.5 mph - N/A   Overcast
3:35 PM 60.8 °F - 35.6 °F 39% 29.87 in 10.0 mi South 8.1 mph - N/A   Overcast
3:55 PM 59.0 °F - 35.6 °F 42% 29.87 in 10.0 mi SSW 11.5 mph - N/A   Overcast
4:15 PM 59.0 °F - 37.4 °F 45% 29.87 in 10.0 mi SW 8.1 mph - N/A   Overcast
4:35 PM 59.0 °F - 37.4 °F 45% 29.87 in 10.0 mi SSW 9.2 mph - N/A   Mostly Cloudy
4:55 PM 59.0 °F - 39.2 °F 48% 29.87 in 10.0 mi South 9.2 mph - N/A   Mostly Cloudy
5:15 PM 59.0 °F - 37.4 °F 45% 29.87 in 10.0 mi South 10.4 mph 17.3 mph N/A   Partly Cloudy
5:35 PM 59.0 °F - 37.4 °F 45% 29.87 in 10.0 mi South 9.2 mph - N/A   Mostly Cloudy
5:55 PM 59.0 °F - 37.4 °F 45% 29.87 in 10.0 mi SSE 11.5 mph - N/A   Mostly Cloudy
6:15 PM 57.2 °F - 37.4 °F 48% 29.87 in 10.0 mi South 12.7 mph - N/A   Mostly Cloudy
6:35 PM 59.0 °F - 37.4 °F 45% 29.87 in 10.0 mi SSE 12.7 mph - N/A   Mostly Cloudy
6:55 PM 57.2 °F - 35.6 °F 44% 29.87 in 10.0 mi South 10.4 mph 16.1 mph N/A   Overcast
7:15 PM 57.2 °F - 35.6 °F 44% 29.86 in 10.0 mi SSE 8.1 mph - N/A   Overcast
7:35 PM 57.2 °F - 37.4 °F 48% 29.87 in 10.0 mi SSE 9.2 mph - N/A   Overcast
7:55 PM 55.4 °F - 37.4 °F 51% 29.86 in 10.0 mi SSE 9.2 mph - N/A   Overcast
8:15 PM 53.6 °F - 37.4 °F 54% 29.86 in 10.0 mi South 4.6 mph - N/A   Overcast
8:35 PM 50.0 °F - 35.6 °F 58% 29.85 in 10.0 mi Calm Calm - N/A   Overcast
8:55 PM 50.0 °F - 35.6 °F 58% 29.85 in 10.0 mi Calm Calm - N/A   Overcast
9:15 PM 48.2 °F - 35.6 °F 62% 29.86 in 10.0 mi Calm Calm - N/A   Overcast
9:35 PM 46.4 °F - 37.4 °F 71% 29.87 in 10.0 mi Calm Calm - N/A   Overcast
9:55 PM 48.2 °F - 37.4 °F 66% 29.87 in 10.0 mi Calm Calm - N/A   Overcast
10:15 PM 48.2 °F - 37.4 °F 66% 29.88 in 10.0 mi Calm Calm - N/A   Overcast
10:35 PM 48.2 °F - 37.4 °F 66% 29.89 in 10.0 mi Calm Calm - N/A   Overcast
10:55 PM 48.2 °F - 37.4 °F 66% 29.89 in 10.0 mi Calm Calm - N/A   Overcast
11:15 PM 46.4 °F - 37.4 °F 71% 29.88 in 10.0 mi Calm Calm - N/A   Overcast
11:35 PM 46.4 °F - 39.2 °F 76% 29.88 in 10.0 mi Calm Calm - N/A   Overcast
11:55 PM 46.4 °F - 37.4 °F 71% 29.87 in 10.0 mi Calm Calm - N/A   Overcast